Terminal Aerodrome Forecast
Issued by NWS St Louis, MO

Home | Current Version | Previous Version | Text Only | Print | Product List | Glossary On
Versions: 1 2 3 4 5 6 7 8 9 10 11 12 13 14 15 16 17 18 19 20
000
FTUS43 KLSX 161000 AAB
TAFCOU
TAF AMD
KCOU 161018Z 1610/1706 28015G25KT P6SM OVC008
      TEMPO 1610/1612 -RA
     FM161200 29016G26KT P6SM OVC012
     FM161800 30014G24KT P6SM OVC025=

USA.gov is the U.S. government's official web portal to all federal, state and local government web resources and services.